TimeCST,TemperatureF,Dew PointF,Humidity,Sea Level PressureIn,VisibilityMPH,Wind Direction,Wind SpeedMPH,Gust SpeedMPH,PrecipitationIn,Events,Conditions,WindDirDegrees,DateUTC
12:12 AM,19.4,12.2,74,30.25,10.0,NE,3.5,-,N/A,,Clear,50,2013-03-01 06:12:00
12:33 AM,19.4,12.2,74,30.26,10.0,NE,3.5,-,N/A,,Clear,50,2013-03-01 06:33:00
12:52 AM,19.4,12.2,74,30.26,10.0,Calm,Calm,-,N/A,,Clear,0,2013-03-01 06:52:00
1:12 AM,19.4,12.2,74,30.26,10.0,NE,4.6,-,N/A,,Clear,50,2013-03-01 07:12:00
1:33 AM,17.6,12.2,79,30.26,10.0,NE,3.5,-,N/A,,Clear,50,2013-03-01 07:33:00
1:52 AM,17.6,10.4,73,30.27,10.0,NE,3.5,-,N/A,,Clear,40,2013-03-01 07:52:00
2:12 AM,17.6,10.4,73,30.28,10.0,Calm,Calm,-,N/A,,Clear,0,2013-03-01 08:12:00
2:32 AM,17.6,10.4,73,30.28,10.0,Calm,Calm,-,N/A,,Scattered Clouds,0,2013-03-01 08:32:00
2:52 AM,17.6,12.2,79,30.28,10.0,Calm,Calm,-,N/A,,Overcast,0,2013-03-01 08:52:00
3:32 AM,19.4,12.2,74,30.28,10.0,Calm,Calm,-,N/A,,Overcast,0,2013-03-01 09:32:00
3:52 AM,19.4,12.2,74,30.28,10.0,NNE,3.5,-,N/A,,Overcast,20,2013-03-01 09:52:00
4:12 AM,19.4,12.2,74,30.29,10.0,NNE,3.5,-,N/A,,Overcast,30,2013-03-01 10:12:00
4:32 AM,19.4,12.2,74,30.30,10.0,NNE,3.5,-,N/A,,Overcast,20,2013-03-01 10:32:00
5:12 AM,19.4,12.2,74,30.31,10.0,North,3.5,-,N/A,,Overcast,10,2013-03-01 11:12:00
5:32 AM,19.4,12.2,74,30.31,10.0,Calm,Calm,-,N/A,,Overcast,0,2013-03-01 11:32:00
6:12 AM,19.4,12.2,74,30.32,10.0,Calm,Calm,-,N/A,,Overcast,0,2013-03-01 12:12:00
6:33 AM,19.4,12.2,74,30.33,10.0,Calm,Calm,-,N/A,,Overcast,0,2013-03-01 12:33:00
7:13 AM,21.2,12.2,68,30.34,10.0,NE,3.5,-,N/A,,Overcast,40,2013-03-01 13:13:00
7:32 AM,21.2,12.2,68,30.34,10.0,NE,5.8,-,N/A,,Overcast,40,2013-03-01 13:32:00
7:52 AM,21.2,14.0,74,30.35,10.0,NE,8.1,-,N/A,,Overcast,40,2013-03-01 13:52:00
8:12 AM,21.2,12.2,68,30.35,10.0,NE,5.8,-,N/A,,Overcast,40,2013-03-01 14:12:00
8:32 AM,21.2,12.2,68,30.35,10.0,NE,5.8,-,N/A,,Overcast,50,2013-03-01 14:32:00
8:52 AM,23.0,14.0,68,30.35,10.0,NE,6.9,-,N/A,,Overcast,40,2013-03-01 14:52:00
9:12 AM,23.0,14.0,68,30.36,10.0,NNE,6.9,-,N/A,,Overcast,30,2013-03-01 15:12:00
9:32 AM,23.0,12.2,63,30.36,10.0,NE,8.1,-,N/A,,Overcast,40,2013-03-01 15:32:00
9:52 AM,23.0,14.0,68,30.37,10.0,NE,9.2,-,N/A,,Overcast,50,2013-03-01 15:52:00
10:12 AM,24.8,14.0,64,30.37,10.0,ENE,6.9,-,N/A,,Overcast,70,2013-03-01 16:12:00
10:32 AM,24.8,14.0,64,30.37,10.0,NE,5.8,-,N/A,,Overcast,50,2013-03-01 16:32:00
10:52 AM,26.6,14.0,59,30.36,10.0,ENE,6.9,-,N/A,,Overcast,70,2013-03-01 16:52:00
11:12 AM,26.6,14.0,59,30.36,10.0,NE,6.9,-,N/A,,Overcast,50,2013-03-01 17:12:00
11:32 AM,28.4,14.0,55,30.36,10.0,NNE,6.9,-,N/A,,Mostly Cloudy,20,2013-03-01 17:32:00
11:52 AM,26.6,14.0,59,30.37,10.0,NE,5.8,-,N/A,,Mostly Cloudy,40,2013-03-01 17:52:00
12:12 PM,28.4,14.0,55,30.36,10.0,NE,6.9,-,N/A,,Mostly Cloudy,50,2013-03-01 18:12:00
12:33 PM,26.6,14.0,59,30.36,10.0,NE,6.9,-,N/A,,Overcast,50,2013-03-01 18:33:00
12:52 PM,26.6,14.0,59,30.36,10.0,NNE,5.8,-,N/A,,Overcast,30,2013-03-01 18:52:00
1:12 PM,28.4,14.0,55,30.36,10.0,NNE,6.9,-,N/A,,Overcast,20,2013-03-01 19:12:00
1:32 PM,28.4,14.0,55,30.36,10.0,NNE,8.1,-,N/A,,Overcast,30,2013-03-01 19:32:00
1:52 PM,28.4,14.0,55,30.34,10.0,NNE,5.8,-,N/A,,Mostly Cloudy,20,2013-03-01 19:52:00
2:13 PM,28.4,14.0,55,30.34,10.0,NNE,6.9,-,N/A,,Scattered Clouds,20,2013-03-01 20:13:00
2:32 PM,28.4,14.0,55,30.34,10.0,NNE,3.5,-,N/A,,Scattered Clouds,30,2013-03-01 20:32:00
2:52 PM,28.4,12.2,51,30.34,10.0,NNE,6.9,-,N/A,,Scattered Clouds,30,2013-03-01 20:52:00
3:12 PM,26.6,12.2,55,30.34,10.0,North,6.9,-,N/A,,Scattered Clouds,360,2013-03-01 21:12:00
3:32 PM,26.6,12.2,55,30.34,10.0,NE,6.9,-,N/A,,Scattered Clouds,40,2013-03-01 21:32:00
4:12 PM,26.6,14.0,59,30.35,10.0,NNE,5.8,-,N/A,,Clear,20,2013-03-01 22:12:00
4:33 PM,26.6,14.0,59,30.35,10.0,NNE,8.1,-,N/A,,Clear,30,2013-03-01 22:33:00
5:12 PM,24.8,12.2,59,30.36,10.0,NNE,3.5,-,N/A,,Clear,20,2013-03-01 23:12:00
5:32 PM,23.0,12.2,63,30.36,10.0,NE,5.8,-,N/A,,Clear,40,2013-03-01 23:32:00
5:52 PM,21.2,12.2,68,30.37,10.0,NNE,4.6,-,N/A,,Clear,30,2013-03-01 23:52:00
6:13 PM,19.4,10.4,68,30.37,10.0,NNE,5.8,-,N/A,,Clear,30,2013-03-02 00:13:00
6:32 PM,19.4,10.4,68,30.37,10.0,NE,3.5,-,N/A,,Clear,40,2013-03-02 00:32:00
6:52 PM,19.4,10.4,68,30.37,10.0,NE,3.5,-,N/A,,Clear,40,2013-03-02 00:52:00
7:12 PM,19.4,8.6,63,30.37,10.0,NE,3.5,-,N/A,,Clear,40,2013-03-02 01:12:00
7:32 PM,19.4,8.6,63,30.37,10.0,NE,3.5,-,N/A,,Clear,40,2013-03-02 01:32:00
7:52 PM,17.6,8.6,68,30.38,10.0,Calm,Calm,-,N/A,,Clear,0,2013-03-02 01:52:00
8:12 PM,17.6,8.6,68,30.37,10.0,NE,5.8,-,N/A,,Clear,40,2013-03-02 02:12:00
8:32 PM,17.6,6.8,63,30.37,10.0,NE,4.6,-,N/A,,Clear,50,2013-03-02 02:32:00
8:52 PM,15.8,5.0,62,30.37,10.0,Calm,Calm,-,N/A,,Clear,0,2013-03-02 02:52:00
9:12 PM,14.0,5.0,67,30.37,10.0,NE,3.5,-,N/A,,Clear,40,2013-03-02 03:12:00
9:32 PM,14.0,6.8,73,30.37,10.0,Calm,Calm,-,N/A,,Clear,0,2013-03-02 03:32:00
9:52 PM,14.0,6.8,73,30.37,10.0,Calm,Calm,-,N/A,,Clear,0,2013-03-02 03:52:00
10:13 PM,14.0,6.8,73,30.37,10.0,Calm,Calm,-,N/A,,Clear,0,2013-03-02 04:13:00
10:32 PM,12.2,5.0,73,30.37,10.0,Calm,Calm,-,N/A,,Clear,0,2013-03-02 04:32:00
10:52 PM,12.2,6.8,79,30.37,10.0,Calm,Calm,-,N/A,,Clear,0,2013-03-02 04:52:00
11:12 PM,10.4,5.0,79,30.37,10.0,Calm,Calm,-,N/A,,Clear,0,2013-03-02 05:12:00
11:32 PM,10.4,5.0,79,30.37,10.0,Calm,Calm,-,N/A,,Clear,0,2013-03-02 05:32:00
11:52 PM,6.8,1.4,79,30.36,10.0,Calm,Calm,-,N/A,,Clear,0,2013-03-02 05:52:00